Wind_Speed
29 28 25 23 26 26 22 24 32 40 43 43 44 41 37 39 42 44 45 43 40 38 34 31 30 32 34 32 29 30 30 31 33 35 37 37 38 39 39 38 37 35 34 33 33 33 32 31 31 30 27 25 26 26 28 30 31 30 29 28 28 27 27 27 28 30 32 32 28 27 27 26 26 26 24 22 21 20 19 18 18 18 18 19 19 19 19
30 31 29 26 27 29 28 30 37 44 44 42 43 43 41 43 45 45 45 44 42 42 41 37 33 30 31 31 30 29 30 32 33 35 36 37 38 40 41 40 39 38 36 36 36 36 35 34 34 32 28 25 23 22 23 27 30 29 28 27 27 26 25 25 27 30 33 33 30 28 28 27 27 26 25 24 23 22 21 20 19 18 18 18 19 19 19
38 39 35 31 29 31 32 34 37 41 43 43 44 45 46 47 47 46 46 46 45 44 43 41 38 34 32 32 33 32 31 32 33 35 37 37 38 40 41 42 41 39 38 38 37 38 37 37 36 34 31 28 25 21 20 23 26 27 27 26 26 26 25 25 27 29 30 31 31 30 29 28 27 28 27 26 25 24 23 22 21 21 20 19 19 19 19
35 37 37 34 31 32 33 34 36 38 37 37 39 40 42 44 44 44 45 47 48 47 45 42 39 38 38 37 36 35 34 34 33 33 36 37 38 39 41 43 43 42 41 39 38 39 39 38 37 35 34 33 30 27 25 23 24 25 25 25 27 29 28 27 29 30 29 29 30 31 30 28 28 31 32 30 28 26 25 24 24 23 22 22 21 21 20
28 26 29 32 34 36 34 32 34 37 34 33 35 35 38 41 42 42 43 43 44 46 45 43 40 39 39 41 40 38 36 36 36 35 35 37 38 39 40 42 44 44 43 42 40 40 40 40 39 37 36 35 33 32 29 27 26 26 25 26 28 31 32 31 31 32 31 29 29 31 30 28 29 33 34 33 32 30 28 27 25 25 25 24 24 23 23
26 18 18 27 35 37 34 32 34 35 33 31 30 32 37 40 39 40 42 42 42 44 44 44 44 42 40 40 40 39 37 37 39 39 38 38 39 40 40 41 43 45 45 44 43 42 41 42 41 40 38 36 35 33 32 30 29 28 28 28 27 30 34 36 35 33 32 31 30 31 31 30 30 31 33 34 33 31 30 28 26 25 24 24 24 25 24
25 20 19 27 33 34 33 34 36 36 34 33 33 32 35 37 37 38 42 42 42 43 44 43 44 43 42 42 42 41 40 40 40 40 41 41 41 41 41 41 42 44 45 45 45 44 44 43 43 43 41 39 37 36 35 34 32 31 31 30 28 28 32 36 37 35 34 33 32 33 32 31 30 31 32 32 32 30 29 28 27 26 25 24 26 25 23
27 25 25 28 30 32 33 35 36 35 34 35 37 36 35 37 37 37 39 40 41 42 43 42 42 42 42 43 44 44 43 43 43 41 41 42 43 43 43 42 42 43 44 46 46 46 46 45 44 44 44 42 40 39 38 37 36 34 34 33 31 30 31 33 35 36 36 35 34 34 34 33 31 30 31 31 30 29 28 28 29 30 27 26 27 26 24
28 28 28 28 28 30 31 31 33 33 32 32 34 35 35 36 35 35 38 39 39 41 43 41 41 43 42 42 43 45 45 45 46 44 42 43 44 44 44 44 44 44 44 45 47 47 48 47 46 46 46 45 43 41 40 40 39 38 37 37 36 35 33 33 33 35 37 37 36 36 36 35 32 31 30 29 28 27 28 28 29 29 27 26 25 24 23
29 30 31 30 29 29 29 30 31 31 32 33 33 34 36 36 35 35 37 38 37 37 41 42 41 42 44 44 43 45 46 46 46 47 46 45 45 45 45 45 45 46 46 46 47 48 48 49 49 48 48 48 46 45 43 42 42 41 40 40 40 39 38 36 34 34 35 35 36 37 38 37 35 33 32 31 29 28 29 29 28 27 27 26 24 23 23
29 31 34 34 32 30 30 31 31 30 32 33 32 33 36 38 37 36 36 38 38 36 37 42 43 43 45 46 44 45 47 46 46 48 48 48 48 48 48 47 46 47 48 47 48 48 48 50 51 51 51 50 50 49 47 46 45 44 43 43 44 43 42 41 38 36 35 34 34 35 38 39 38 36 35 34 32 30 30 30 30 28 28 27 26 24 24
27 30 32 32 32 32 32 32 31 31 32 32 32 34 37 38 38 37 36 39 41 40 39 42 43 44 46 46 45 45 46 45 45 47 48 49 50 50 49 49 49 50 49 49 50 50 49 50 51 52 52 53 53 53 52 50 49 48 47 46 46 46 46 45 44 41 39 37 35 35 36 39 40 40 38 37 35 33 30 30 30 28 28 28 27 25 24
24 27 28 28 31 34 34 34 32 29 29 31 34 35 37 38 40 39 38 40 43 45 46 46 45 45 46 46 46 48 47 45 44 44 46 48 50 51 50 50 50 51 51 51 52 52 51 52 52 52 53 54 55 56 55 54 53 53 51 50 49 49 49 48 48 47 45 43 41 38 37 38 39 40 40 39 37 35 33 32 31 30 29 29 27 26 25
24 26 26 27 30 31 32 34 33 29 27 30 33 33 35 38 40 40 41 43 44 45 46 46 46 46 47 47 47 48 48 46 45 45 45 45 46 48 50 51 51 51 52 53 53 53 53 53 54 54 54 55 56 57 58 58 57 56 56 55 53 53 53 52 51 50 50 49 48 45 42 40 39 40 40 40 38 37 36 36 35 34 33 32 30 28 27
26 27 28 28 29 29 30 32 33 31 29 30 31 32 33 35 38 40 41 42 42 42 43 44 44 45 46 47 47 47 48 48 48 48 48 47 46 46 48 50 51 50 51 53 54 55 55 55 55 55 55 55 56 57 58 59 59 59 60 60 59 57 57 56 56 55 54 53 53 51 49 46 43 42 41 41 40 40 40 38 36 34 33 33 32 30 29
29 30 30 30 30 31 31 32 32 31 30 31 32 32 33 34 36 38 39 38 38 39 41 43 43 44 45 45 46 47 48 49 49 49 48 48 49 49 48 49 50 49 50 51 52 54 55 56 56 56 56 56 57 58 58 59 60 61 61 62 63 62 62 61 60 60 59 58 57 56 55 53 50 47 45 44 43 44 43 39 36 33 31 31 32 32 31
30 30 31 30 31 32 33 33 32 32 31 32 34 34 34 35 36 37 38 37 36 37 38 40 41 42 43 44 45 46 47 48 48 48 47 47 48 49 50 50 49 49 49 50 51 51 53 54 55 56 57 57 57 58 58 59 60 60 61 62 63 64 65 65 64 64 63 62 61 60 59 58 56 53 51 49 48 47 46 42 39 36 33 32 32 33 33
31 31 31 30 30 31 33 33 33 33 34 34 35 35 37 37 37 37 38 37 36 37 38 39 39 40 40 41 42 44 46 47 47 47 47 46 46 47 48 49 49 48 48 49 50 50 51 52 53 54 56 57 57 57 58 59 60 60 61 62 62 62 64 65 66 66 66 65 64 63 62 62 60 58 56 54 51 51 50 47 44 42 40 37 35 35 35
33 33 34 33 32 33 34 33 34 34 35 35 35 36 37 38 37 38 38 38 38 39 40 40 40 40 39 40 40 41 43 44 45 46 46 46 46 46 46 47 47 48 47 48 49 50 50 51 51 52 53 54 56 56 57 58 59 60 60 61 62 62 63 64 65 66 66 66 65 65 64 63 63 62 60 58 55 53 53 52 49 47 46 44 41 39 38
34 34 35 35 35 35 35 35 35 34 34 35 35 36 36 36 36 37 38 39 40 41 41 42 42 42 41 41 41 41 42 43 44 45 45 45 46 45 45 46 46 47 47 47 47 48 49 50 51 51 52 53 54 55 56 57 58 59 60 60 61 62 62 63 64 66 67 66 66 65 65 65 64 64 63 61 58 56 55 55 54 52 50 49 48 45 42
34 34 35 35 35 35 36 37 37 37 36 36 35 34 34 34 34 34 35 37 40 41 41 42 43 44 44 44 43 43 43 44 45 45 46 46 46 46 46 46 46 46 46 46 47 47 48 50 51 51 52 52 53 53 54 55 56 57 58 59 59 60 61 61 63 65 67 67 66 65 66 66 66 66 65 64 62 60 59 58 57 56 54 53 52 51 48
34 35 36 36 36 37 38 38 39 40 40 39 36 33 33 34 34 34 34 35 36 38 39 39 40 42 43 43 44 44 45 46 46 47 47 48 48 48 48 47 47 47 47 47 47 48 48 49 50 51 52 53 53 53 54 54 55 56 57 57 58 58 59 59 61 63 65 66 66 66 67 67 67 67 67 67 66 64 62 61 60 59 58 57 56 55 53
33 34 35 36 36 37 39 40 41 41 42 42 40 37 35 36 36 35 34 34 35 35 35 35 36 37 38 39 40 41 43 44 45 46 47 48 49 49 50 50 49 49 49 49 49 49 49 50 51 52 53 53 54 54 54 54 55 55 56 57 57 58 58 58 59 60 62 63 65 66 67 68 68 68 68 68 68 67 66 65 64 63 62 61 61 59 57
32 33 34 34 35 35 37 38 40 41 42 42 41 40 39 39 38 38 36 36 35 35 35 35 35 35 35 36 36 37 38 40 41 43 44 46 47 48 49 50 50 50 51 51 51 51 51 52 52 53 54 54 55 55 56 56 56 55 56 56 57 57 58 58 58 58 59 61 63 64 66 67 69 69 69 69 70 70 70 69 69 67 66 65 65 64 62
35 35 34 35 35 35 36 36 37 39 41 41 41 41 41 40 40 41 40 39 38 38 38 37 37 37 36 36 36 37 37 38 39 39 40 41 42 43 44 45 47 48 48 49 50 51 51 52 53 54 55 56 56 57 57 58 57 57 58 58 58 58 58 58 58 58 59 59 60 62 64 66 67 68 68 69 70 71 71 71 72 72 71 70 68 67 66
35 35 35 36 36 36 36 37 37 39 40 41 41 41 41 40 40 41 42 42 42 41 40 40 40 40 38 38 38 38 38 38 38 39 39 39 39 39 40 41 42 43 44 45 46 47 47 48 50 52 54 55 57 58 59 59 60 60 60 61 61 61 60 59 59 59 60 60 61 61 62 63 65 66 67 68 71 72 72 72 73 74 74 74 73 72 70
34 35 35 36 37 37 37 37 37 38 39 40 40 40 40 41 40 40 41 42 43 43 42 42 42 42 41 40 40 40 40 40 40 40 40 39 39 39 39 39 40 40 41 42 42 43 43 44 44 46 48 51 53 55 57 59 60 61 62 63 63 63 63 63 62 61 61 62 62 62 62 63 64 65 66 66 68 70 72 72 72 73 75 76 76 76 74
33 34 35 36 37 36 36 36 37 37 37 39 39 39 39 40 39 39 40 41 43 43 42 42 43 44 43 43 43 42 42 42 42 42 41 41 41 41 41 41 41 42 42 42 42 42 42 42 42 43 44 45 46 49 52 55 57 59 61 63 64 65 66 66 65 65 64 64 64 64 64 64 64 65 65 65 66 68 70 71 72 72 73 75 76 77 76
30 31 31 33 35 36 36 37 37 36 36 37 38 38 38 38 39 39 40 41 42 43 42 42 42 43 43 44 44 44 44 44 44 44 44 44 44 44 43 44 44 45 45 45 45 45 45 45 44 44 44 44 44 45 47 49 52 55 58 60 62 64 65 66 67 67 67 67 67 67 67 67 67 66 66 66 66 67 68 69 70 71 71 73 74 76 76
29 30 29 29 31 33 36 37 38 37 37 39 40 40 40 39 40 40 40 40 40 41 41 41 41 42 43 43 44 44 45 45 46 46 47 47 47 46 46 47 47 47 48 48 48 48 48 48 47 47 46 46 46 46 46 48 49 51 53 56 58 61 63 64 66 67 68 69 70 70 71 70 70 69 69 68 68 68 68 69 70 70 70 71 72 74 75
29 30 30 30 31 33 35 36 37 37 37 38 40 40 40 40 40 41 40 40 40 41 41 42 42 43 43 44 44 44 45 45 46 46 47 47 47 47 48 48 49 49 49 50 50 49 49 49 49 49 49 48 48 48 48 48 49 50 51 52 54 56 59 60 62 64 65 67 69 71 72 73 73 72 72 72 71 71 71 71 71 71 71 70 70 71 73
29 30 30 30 31 33 35 36 36 37 37 38 39 39 39 39 40 41 41 42 42 42 42 43 44 44 45 45 45 46 46 46 47 47 47 47 48 48 49 49 49 50 50 51 51 51 51 51 51 51 51 51 51 51 51 51 51 51 52 52 53 54 56 57 59 60 62 64 66 68 70 72 73 73 74 74 74 74 74 74 73 73 73 72 71 71 72
24 26 28 28 29 30 32 33 34 35 36 36 37 39 40 40 40 41 42 43 43 43 43 43 44 45 45 45 46 47 47 47 48 48 48 48 49 49 50 50 51 51 51 52 52 52 52 52 53 53 53 53 53 54 54 54 53 54 54 54 55 55 56 56 57 58 59 60 62 64 65 68 70 71 73 74 75 75 75 75 76 76 76 76 75 74 73
22 23 24 25 27 29 30 31 32 33 33 34 36 37 37 36 37 38 39 40 42 42 42 41 42 43 43 44 45 46 47 47 48 48 49 49 50 50 51 52 52 53 53 53 53 53 54 54 55 55 55 56 56 56 56 56 56 56 55 55 56 56 57 57 58 58 58 59 60 61 62 63 65 67 69 72 73 74 75 75 76 77 78 78 79 78 77
25 25 24 24 26 29 31 31 32 32 32 33 35 35 35 34 34 35 36 37 39 39 39 38 38 39 39 40 41 42 43 44 45 46 47 48 49 50 51 52 53 53 54 54 55 55 55 56 56 56 57 57 58 58 58 58 57 56 56 55 56 56 56 57 57 58 59 60 60 60 60 60 61 62 64 67 69 71 72 73 75 77 78 79 80 81 80
27 27 27 27 27 28 29 30 30 32 33 34 34 34 34 34 33 33 34 36 37 37 37 36 36 36 37 37 38 39 40 41 42 43 44 45 46 46 48 49 50 51 52 53 54 55 55 55 56 56 56 57 57 57 57 57 57 56 56 56 56 56 56 56 57 57 59 60 61 61 60 60 60 60 61 62 65 67 69 70 72 74 76 78 80 81 81
32 31 31 31 30 30 31 30 30 31 32 34 35 35 34 35 35 35 35 37 36 36 35 36 35 35 36 37 37 38 39 40 41 41 42 43 43 44 45 46 46 46 47 49 50 51 52 52 53 53 54 55 55 55 55 56 56 56 57 57 57 57 57 58 58 59 59 60 61 61 61 61 60 60 60 60 61 62 64 66 68 70 73 75 77 79 80
36 36 36 35 34 33 33 32 32 32 32 34 36 35 34 35 36 37 37 37 37 35 34 34 34 34 35 36 37 37 38 39 40 40 41 41 41 42 42 43 43 43 44 46 47 47 48 49 50 50 51 52 53 53 54 55 56 56 57 57 57 58 58 58 59 60 60 60 61 61 61 61 61 60 60 60 60 60 61 63 64 66 68 71 73 76 78
40 40 39 39 38 37 36 35 35 33 32 33 35 36 36 35 34 34 35 36 36 36 35 36 36 36 36 35 36 37 38 39 39 40 40 39 39 39 40 40 40 40 41 43 44 44 45 46 47 48 49 50 51 52 53 54 54 55 55 56 56 56 56 56 57 58 59 60 61 61 61 61 61 61 60 60 60 60 60 61 61 63 64 66 69 72 74
45 45 44 43 43 42 41 40 39 37 35 33 33 34 36 36 35 34 34 36 37 37 37 37 37 37 37 37 37 37 38 39 39 39 39 39 38 39 39 40 39 40 41 42 42 43 44 44 45 46 47 48 49 50 51 51 52 53 53 54 54 54 54 54 54 55 57 58 59 60 60 61 61 61 60 60 59 59 59 59 60 60 61 62 64 67 70
49 50 49 48 47 46 46 45 43 42 41 39 35 33 34 37 38 38 37 38 39 38 36 34 33 34 34 35 36 36 37 38 38 38 38 38 37 37 38 39 39 39 40 41 41 41 42 42 43 44 45 46 47 48 49 50 50 51 52 53 53 53 53 52 52 52 53 55 56 57 58 59 60 60 60 59 58 58 58 58 58 59 59 60 61 63 66
47 49 51 51 51 51 50 49 48 46 45 44 41 38 36 36 38 40 40 40 40 39 37 35 34 34 34 35 35 35 36 36 37 37 36 36 36 35 36 37 37 37 38 40 40 40 41 42 43 44 46 47 48 48 49 50 50 51 52 52 53 53 53 52 51 51 51 52 53 55 56 57 58 58 58 58 57 56 56 57 57 56 57 57 58 60 62
42 44 46 49 51 51 51 51 51 49 47 46 46 44 40 37 36 38 41 41 41 40 38 36 36 36 37 37 37 37 36 36 36 36 36 36 35 35 35 36 37 37 39 41 42 42 42 43 44 46 47 48 49 49 49 50 50 51 51 52 52 52 52 52 51 50 50 50 51 52 53 55 56 56 57 56 56 55 55 54 54 53 54 55 56 58 60
36 37 39 41 44 47 48 50 52 51 48 46 46 46 44 40 36 35 37 40 41 39 38 37 37 37 37 36 36 36 35 35 35 34 34 35 35 35 35 37 39 40 42 43 44 45 46 46 47 48 49 50 50 50 50 49 49 49 50 50 51 51 51 50 50 49 48 48 48 49 50 52 53 53 54 54 54 53 52 51 50 50 51 52 53 55 57
29 31 33 35 37 39 42 45 49 50 48 46 45 45 44 42 38 33 33 36 38 38 37 38 37 36 35 34 33 32 32 32 33 33 34 36 37 38 39 40 41 43 44 45 46 46 46 47 48 49 49 49 49 49 49 48 47 47 47 47 48 48 48 48 47 47 46 46 46 46 47 48 50 51 51 52 51 50 49 47 47 47 48 49 50 51 52
26 29 30 30 31 33 35 37 41 44 44 43 44 44 44 44 40 35 31 31 34 35 35 35 34 34 33 33 33 33 33 34 35 36 37 37 38 39 40 41 42 43 44 45 45 45 45 45 46 46 47 47 47 47 46 45 45 44 43 43 44 45 45 45 45 44 44 44 45 45 45 46 47 48 48 48 48 47 46 45 45 45 46 47 48 48 49
22 24 24 24 24 26 28 30 34 37 37 36 38 41 43 43 43 39 34 32 33 33 33 32 31 31 32 32 31 31 31 32 33 34 35 35 35 36 37 38 39 41 42 43 43 43 43 44 44 44 44 44 44 44 43 42 41 41 40 40 41 42 42 43 42 42 43 43 43 43 43 43 45 46 46 45 45 45 44 43 42 43 44 46 47 47 48
17 17 16 15 15 17 20 23 28 32 32 30 31 35 39 41 42 42 40 37 35 34 33 32 31 30 29 28 27 27 27 28 30 30 31 31 32 34 35 35 36 37 39 40 40 40 40 40 40 41 42 42 43 42 40 39 38 38 38 38 39 39 39 40 40 40 41 41 41 41 41 41 42 43 44 44 43 43 42 41 40 41 43 44 46 47 47
16 14 12 10 9 10 12 16 21 25 27 26 28 33 38 40 41 42 41 38 35 32 32 31 30 28 27 28 28 28 28 29 29 29 29 30 31 33 34 34 33 34 36 37 36 36 36 37 38 39 40 40 39 38 37 36 36 36 36 37 36 36 36 37 38 38 39 39 39 39 39 39 40 41 43 43 43 42 41 40 40 41 42 43 44 46 46
19 16 13 11 8 5 7 11 14 17 21 23 26 32 36 39 40 42 42 39 35 33 33 32 30 29 29 29 29 28 27 26 27 28 29 30 31 32 33 33 32 31 32 33 35 36 37 37 37 36 36 35 34 34 34 34 34 34 34 34 34 34 34 35 36 37 37 37 37 37 37 37 38 39 41 42 42 42 41 41 40 41 42 43 43 44 45
23 19 16 13 10 5 1 6 9 13 17 20 24 28 31 32 34 37 38 36 34 34 34 32 30 28 26 25 24 24 25 25 27 28 29 30 30 30 29 30 31 31 32 34 36 36 36 35 34 32 31 30 30 30 31 31 32 31 31 30 30 32 33 34 35 35 36 36 36 36 35 35 35 35 37 40 42 42 42 41 41 42 42 43 42 43 43
24 21 18 15 12 9 6 2 3 8 13 17 19 19 20 22 25 28 30 30 29 29 28 26 24 23 23 23 25 27 27 26 27 27 27 27 27 27 27 29 31 32 33 34 34 33 31 30 28 27 26 26 27 27 27 28 28 28 28 28 29 31 32 33 33 33 33 33 33 33 32 32 32 32 32 34 36 37 38 38 39 40 40 40 40 40 40
Wind_Direction
220 217 212 213 208 198 193 202 217 221 214 213 218 214 209 214 218 219 222 225 230 232 231 232 234 233 231 233 235 232 229 227 227 229 231 230 230 231 233 235 236 237 239 241 244 247 249 251 253 249 243 240 239 235 230 227 226 228 232 235 233 231 234 238 241 244 243 240 236 233 233 234 233 233 233 234 236 238 239 238 238 241 243 245 245 245 244
217 219 217 219 212 200 200 212 222 223 217 215 218 214 212 218 223 223 225 227 230 232 233 233 235 235 233 233 234 232 230 229 228 228 229 230 229 229 231 233 235 236 236 238 241 244 246 248 249 246 243 245 247 243 237 231 229 233 237 237 233 232 234 237 237 237 237 238 234 229 234 239 238 235 234 233 234 235 238 240 240 240 240 242 244 245 246
218 220 220 222 218 211 214 222 227 226 221 218 218 216 217 223 227 228 229 230 232 234 236 237 239 240 238 237 235 234 233 232 232 229 228 229 229 228 229 230 232 234 236 237 239 242 244 246 247 245 244 245 245 246 245 239 234 236 240 239 237 233 231 233 235 233 234 238 238 235 236 240 243 242 236 232 233 233 234 238 240 241 241 241 241 242 243
221 223 225 226 224 223 222 225 229 230 226 224 224 222 221 225 230 230 230 231 233 236 238 239 241 241 240 239 239 238 237 236 235 233 230 229 230 229 229 229 230 232 233 235 237 240 243 245 246 247 248 248 249 251 254 250 243 243 245 244 241 236 232 234 237 236 238 242 245 243 236 232 237 239 234 231 232 231 231 234 236 238 239 240 240 240 240
222 226 230 228 229 232 230 229 234 235 231 230 230 228 225 227 229 229 230 231 232 235 238 239 240 241 240 241 242 242 242 239 237 237 235 232 231 230 230 229 230 231 232 233 234 237 240 243 246 248 249 250 252 252 253 251 248 246 245 245 243 239 234 234 235 234 236 240 244 245 241 236 237 238 236 235 234 230 228 231 233 236 237 238 239 239 238
218 221 232 231 232 234 234 234 236 236 234 233 232 231 229 228 228 229 231 233 234 236 237 238 240 240 240 241 242 242 242 242 239 238 238 235 233 231 230 230 230 231 231 232 233 235 237 240 243 246 248 249 251 252 251 251 250 247 244 244 245 243 238 235 234 235 235 237 240 242 241 240 240 240 240 242 240 238 237 236 237 241 244 244 245 244 244
213 211 229 235 233 233 234 234 234 234 234 232 230 230 229 228 229 229 230 233 234 234 236 237 240 241 241 240 241 240 241 242 241 239 238 237 235 233 232 231 231 231 231 232 233 234 236 238 240 243 246 247 249 251 252 252 251 250 247 245 244 246 243 239 237 238 238 238 240 241 241 239 237 237 239 240 240 243 246 246 245 247 250 251 250 248 248
217 214 228 236 235 234 235 235 236 237 237 235 234 237 235 233 233 232 231 234 235 235 236 237 238 239 240 240 239 239 239 239 239 239 239 238 238 236 235 233 233 232 232 232 233 234 235 237 238 241 244 246 247 249 251 252 252 252 251 249 245 245 245 243 242 241 240 239 240 242 244 243 240 238 238 237 237 240 242 243 245 248 252 253 252 250 248
223 221 231 238 239 238 235 234 234 235 236 235 234 236 237 235 235 234 233 235 236 237 238 239 237 237 238 239 238 238 238 238 239 239 239 239 238 237 237 235 235 235 235 234 234 235 235 236 237 238 241 244 246 247 249 251 252 252 252 253 250 247 245 244 244 244 243 241 241 242 246 247 245 241 238 235 237 240 240 240 244 250 255 257 259 260 258
229 228 234 239 240 240 238 234 232 232 234 233 231 233 234 233 232 232 231 231 233 234 237 238 236 235 237 238 237 237 238 238 239 240 239 239 239 238 238 237 237 237 237 236 236 236 236 236 237 238 239 240 242 244 246 248 250 251 252 253 254 252 249 246 245 245 245 244 243 244 246 247 245 242 237 235 236 239 240 240 242 246 249 252 254 257 257
230 230 235 238 239 242 242 237 233 233 235 233 231 235 236 233 231 231 230 231 231 231 236 237 234 233 237 237 235 236 237 237 239 240 240 240 241 241 240 240 240 239 238 239 239 238 238 238 238 238 238 239 240 241 242 244 246 248 250 252 254 255 254 252 250 248 247 246 246 247 248 247 246 242 238 237 239 240 239 237 238 242 244 244 245 246 249
229 229 232 236 238 239 241 240 237 237 239 236 235 237 237 234 232 232 231 231 231 230 235 238 235 234 238 239 237 237 237 236 237 239 241 241 241 242 242 242 243 242 241 240 240 240 240 240 239 239 239 240 240 240 241 241 242 244 247 249 252 254 256 257 255 253 250 248 248 249 249 248 248 245 242 241 242 242 240 238 238 241 245 244 243 244 247
230 229 228 231 236 237 239 240 240 240 241 239 236 237 238 235 234 233 232 233 232 232 236 239 239 238 240 241 242 241 239 237 236 238 241 242 242 243 243 243 243 243 243 243 242 241 241 242 241 240 240 241 241 241 241 240 241 242 244 245 247 250 254 256 257 257 255 253 251 250 249 248 248 247 245 244 244 242 242 243 243 244 247 246 244 245 248
234 233 229 231 235 237 238 240 240 240 241 239 236 238 239 238 237 235 234 235 236 237 239 241 242 242 243 243 245 246 245 243 241 239 238 241 244 246 246 245 244 244 245 245 245 244 243 243 243 242 242 242 242 242 242 242 241 241 242 244 245 247 249 252 254 256 257 257 256 255 252 250 250 249 248 246 244 242 242 244 244 244 246 246 245 246 249
238 237 235 235 237 237 237 239 239 238 240 242 242 242 241 240 240 239 238 238 239 240 242 243 242 243 244 244 246 248 249 248 246 243 241 242 245 247 249 249 248 247 247 247 247 247 246 245 245 245 244 244 244 244 244 243 243 242 242 243 244 246 247 249 251 253 255 256 258 258 257 255 254 253 252 250 247 246 246 246 246 245 245 246 246 247 248
238 238 237 238 239 239 239 240 240 240 241 243 245 244 242 241 241 242 241 240 240 241 243 244 244 243 243 244 245 247 249 249 250 249 247 246 246 247 248 249 250 251 251 250 249 248 248 248 247 247 247 247 246 246 246 245 245 245 244 243 244 245 247 248 249 251 252 254 255 257 258 258 257 256 255 254 251 251 251 252 253 252 247 242 243 246 246
240 240 241 241 241 241 241 242 243 243 243 243 244 245 245 242 241 243 243 240 239 241 243 244 245 244 243 243 244 245 247 249 250 251 250 249 248 248 248 249 250 252 254 254 253 252 251 250 249 249 249 249 249 248 248 248 247 247 247 246 245 246 247 248 249 250 251 252 253 254 256 257 257 257 257 257 255 254 254 254 255 255 251 244 243 245 245
243 242 242 241 242 243 243 243 245 245 244 244 244 245 246 244 242 244 245 243 241 242 243 243 245 245 244 243 244 244 246 248 249 250 250 250 250 249 249 249 250 251 253 254 255 255 254 253 252 251 250 250 250 250 250 250 250 249 249 249 248 248 248 249 250 250 250 250 251 252 253 255 256 257 258 259 258 257 257 256 255 254 253 251 248 247 246
242 242 241 239 240 242 242 241 242 243 244 245 245 245 247 247 246 246 247 245 243 244 245 245 245 245 245 245 244 245 247 248 249 250 250 251 250 250 250 250 249 250 251 253 254 256 256 256 255 254 253 252 251 251 251 251 251 251 251 250 250 250 250 250 251 251 251 251 251 251 251 252 254 255 257 258 258 257 257 258 257 255 254 253 252 250 248
240 241 242 241 241 242 244 244 244 244 245 246 246 247 247 248 247 246 246 245 244 245 246 246 247 247 247 246 246 246 247 249 250 251 252 252 252 251 250 249 249 249 250 250 252 254 255 256 257 256 256 255 254 253 252 252 252 252 252 252 251 251 251 251 252 252 252 252 252 252 252 251 252 253 254 255 256 255 255 256 257 257 256 255 254 253 252
239 240 242 242 241 242 243 245 246 246 246 245 246 248 249 248 247 246 246 245 245 246 246 247 248 248 248 248 248 248 248 249 251 252 253 254 254 254 253 251 250 250 249 248 249 251 253 254 256 256 257 257 257 256 255 254 253 253 253 253 253 252 252 252 252 253 253 253 253 253 253 252 252 252 252 253 253 253 252 253 255 256 257 257 256 255 255
237 238 239 239 240 241 241 243 245 247 247 246 246 247 248 248 247 247 247 247 247 246 247 247 248 249 250 250 250 249 250 250 252 253 254 255 256 256 256 256 254 253 251 250 249 248 249 251 253 255 256 257 257 257 257 256 256 255 254 254 254 254 253 252 252 253 254 254 254 253 253 253 253 252 252 252 252 252 251 250 251 252 254 256 257 257 258
239 239 240 240 240 241 241 241 243 245 247 247 245 244 245 247 248 248 249 249 249 248 248 248 248 249 250 250 251 251 251 251 252 253 254 256 257 258 258 258 258 257 256 254 253 251 250 250 251 253 254 256 256 257 257 257 257 256 256 255 255 255 254 254 253 253 254 254 254 254 253 253 253 253 253 252 252 251 251 250 249 249 251 253 255 256 258
244 243 243 243 243 243 244 243 243 244 247 248 247 244 244 246 248 248 248 249 250 250 250 251 251 251 251 251 251 252 252 252 252 253 254 255 257 258 259 260 260 260 260 259 258 257 255 254 253 253 254 255 256 257 257 257 257 257 257 256 256 255 255 255 254 254 254 254 254 254 253 253 253 253 253 253 253 252 251 251 250 250 249 250 252 253 255
246 245 244 245 245 247 247 247 246 245 246 247 247 246 245 244 245 247 248 248 249 250 251 252 252 252 252 252 252 252 252 252 252 252 253 254 255 257 258 260 261 261 262 261 261 261 260 259 257 256 256 256 256 257 258 258 258 258 258 257 256 255 255 255 255 255 255 255 255 255 254 254 253 253 253 254 254 253 252 251 251 251 250 250 250 252 253
247 247 247 247 247 248 248 249 248 247 247 246 246 246 246 244 244 245 247 247 248 249 250 251 252 252 252 253 252 252 252 252 252 252 252 253 253 254 255 257 258 260 261 261 261 261 261 261 261 260 259 259 258 259 259 259 259 259 259 259 258 257 256 255 255 255 255 255 255 255 255 255 254 254 253 254 254 254 253 252 252 252 252 252 251 251 252
248 248 248 247 246 246 248 249 249 247 246 247 246 247 247 246 244 244 246 248 248 247 248 249 251 252 252 252 253 253 253 253 253 253 253 253 253 253 253 254 255 257 258 259 260 261 261 262 262 262 262 262 262 261 261 261 261 261 260 260 260 260 259 257 256 255 255 255 255 256 256 256 256 255 254 254 255 255 255 254 253 253 253 254 254 253 253
249 247 248 248 247 245 245 248 248 247 246 246 247 247 247 247 246 245 246 248 249 248 248 249 250 251 251 252 252 253 253 253 253 254 254 254 254 254 254 254 254 255 256 257 258 260 261 262 262 263 264 264 264 264 263 263 263 262 262 262 261 261 261 260 259 258 257 256 256 256 256 256 256 256 256 255 255 256 256 256 256 255 254 254 255 255 254
252 249 249 248 247 245 245 247 250 251 250 248 249 249 249 249 248 248 247 248 249 249 249 250 250 251 252 252 253 253 253 253 253 254 254 254 255 255 256 256 256 256 257 258 259 260 261 262 262 263 264 264 265 265 265 265 264 264 263 263 263 262 262 262 262 261 260 259 257 257 256 256 256 256 256 256 256 256 256 257 257 257 256 256 256 256 256
255 255 255 253 250 249 249 250 252 254 254 252 251 251 251 250 250 249 249 250 250 251 251 252 253 253 254 254 254 255 255 255 255 255 255 255 256 257 257 258 258 259 259 260 260 261 261 262 262 262 263 264 264 264 265 265 265 265 265 265 264 264 264 263 263 262 262 261 260 259 258 257 256 256 256 257 257 256 256 257 257 258 258 257 257 257 257
260 260 260 259 256 255 254 254 255 256 256 255 253 252 251 251 250 249 250 251 251 253 254 254 255 255 255 256 256 256 256 257 257 257 257 257 257 258 258 259 259 260 260 260 261 262 262 262 262 262 262 263 263 264 264 264 265 265 266 266 266 266 265 265 264 263 263 262 262 261 260 259 258 257 256 256 256 257 256 256 257 257 258 258 258 258 257
263 262 262 261 259 258 257 257 257 256 255 255 254 254 252 252 251 251 251 252 252 253 254 255 256 256 256 256 257 256 257 257 257 257 258 258 258 259 259 259 260 260 260 261 261 262 262 262 261 261 261 262 262 263 263 263 264 265 266 266 266 267 266 266 265 264 263 263 263 262 262 261 260 259 258 257 256 256 256 256 257 257 257 257 257 257 257
262 261 260 259 259 258 257 256 256 256 255 254 254 254 253 253 254 254 254 254 254 254 254 254 254 255 255 256 256 256 256 256 257 257 258 258 258 259 259 260 260 260 261 261 261 261 262 262 261 261 262 262 262 262 262 263 264 265 266 266 266 266 267 267 266 265 265 264 263 263 263 262 262 261 260 258 257 257 256 256 256 256 257 257 257 257 257
259 257 256 257 257 256 256 255 254 254 255 254 253 253 252 253 253 254 254 254 254 253 252 252 253 254 255 255 255 255 255 256 256 257 257 257 258 258 259 260 260 260 261 261 261 261 262 262 262 262 262 262 263 263 263 264 265 266 266 265 265 265 266 266 267 267 266 265 264 263 263 263 262 262 261 260 259 258 257 256 256 256 256 256 257 257 257
260 256 255 255 255 255 255 254 252 250 251 252 252 252 250 249 251 253 254 254 253 252 252 251 252 253 254 255 255 256 256 257 257 258 258 258 258 258 259 259 260 260 261 261 261 261 262 262 262 262 263 263 263 263 264 265 265 265 265 265 264 265 265 266 266 267 267 266 265 264 264 263 262 262 261 261 260 259 258 257 256 256 255 255 255 256 256
260 257 254 254 255 255 254 252 250 249 248 249 250 250 248 246 247 251 253 254 253 253 253 252 252 253 254 255 256 257 258 258 258 259 259 259 259 259 259 260 260 260 261 262 261 261 261 262 262 263 263 263 263 264 264 264 264 264 264 265 265 265 265 266 266 267 268 268 267 265 264 263 263 262 261 261 260 259 258 257 256 256 255 255 254 254 255
262 258 255 254 255 256 255 254 253 252 250 249 250 250 249 247 245 246 250 253 254 254 252 250 251 252 254 255 256 257 258 258 258 258 259 259 259 259 259 260 260 260 261 261 262 261 261 261 262 262 262 262 263 263 263 263 264 264 264 265 265 265 266 267 267 268 268 268 268 266 265 263 262 261 261 261 260 260 259 258 257 256 255 255 254 253 253
264 261 258 256 255 255 255 255 254 253 253 253 252 250 250 249 246 244 247 252 254 252 248 248 250 253 255 256 256 256 257 258 258 258 259 259 259 260 260 260 261 262 262 263 263 263 263 263 263 263 264 264 264 264 264 265 265 265 265 266 266 267 267 268 268 268 268 267 267 266 265 264 262 261 260 259 259 259 258 258 257 257 256 255 254 253 252
265 262 260 258 257 255 254 254 254 252 253 255 253 249 247 247 246 244 243 246 250 251 251 253 255 255 255 256 257 258 258 259 259 259 260 260 260 261 262 262 263 263 264 265 265 265 266 266 265 266 266 266 266 266 266 266 266 266 266 267 267 267 267 268 268 267 267 266 265 264 264 263 262 261 259 258 258 257 257 257 257 258 257 257 255 254 253
266 263 261 260 258 256 255 254 253 251 250 251 252 249 245 244 245 243 242 246 251 256 258 259 258 256 254 255 256 258 259 259 260 260 261 261 262 263 264 264 264 265 265 266 266 267 267 267 267 267 267 267 267 267 267 267 267 267 267 267 267 267 267 267 267 267 266 265 263 262 261 261 261 260 259 257 256 256 256 256 257 258 258 258 257 256 254
266 264 262 260 258 256 254 253 252 250 247 247 249 250 248 245 243 243 245 249 254 258 260 260 259 257 255 255 256 256 257 259 260 260 261 262 263 264 265 266 266 266 267 267 267 268 268 268 268 268 268 268 269 269 270 269 269 269 268 268 268 267 267 266 267 267 266 265 263 261 260 259 259 258 258 257 255 255 254 254 255 256 258 259 259 258 256
269 266 263 261 258 255 253 252 251 249 247 245 245 248 250 248 245 243 244 248 253 257 259 258 258 258 257 257 257 257 257 257 258 259 260 261 262 264 266 267 267 268 269 269 269 269 270 270 270 270 271 271 271 272 272 272 271 271 270 269 268 267 267 267 267 267 267 265 262 260 258 257 257 257 256 255 254 253 253 253 254 256 258 260 261 260 258
275 270 266 263 259 256 252 250 249 248 247 245 243 243 246 248 247 244 243 244 250 256 258 257 257 259 260 259 258 257 256 256 257 257 259 261 262 263 266 268 269 270 271 272 272 273 273 273 274 274 275 275 275 274 273 273 272 272 270 269 268 267 266 266 267 268 267 265 262 260 258 256 255 255 254 254 253 252 252 253 254 257 259 261 262 261 260
281 276 270 265 261 257 253 249 246 245 245 244 242 240 240 242 244 244 242 240 243 249 253 255 257 260 260 258 256 255 254 255 255 256 258 260 262 264 267 270 272 274 274 275 276 276 276 277 278 278 279 279 279 278 276 275 273 271 270 268 267 267 266 266 266 267 266 264 261 259 258 257 255 254 252 252 252 252 252 253 255 258 261 262 263 262 261
285 283 278 271 264 259 254 250 246 243 242 242 241 238 236 236 238 241 241 238 239 244 250 254 256 257 256 254 254 255 254 255 256 258 260 263 266 268 271 273 274 275 276 277 278 278 278 278 279 280 281 281 281 280 279 276 273 270 268 267 266 266 266 266 266 265 264 262 261 260 259 258 256 253 252 251 251 250 250 253 257 260 263 264 265 264 262
286 287 284 277 268 260 253 248 244 239 237 238 239 238 234 232 233 236 236 234 235 241 248 251 251 250 251 253 257 260 261 262 263 265 266 268 270 273 274 276 277 278 279 280 280 280 279 279 279 279 280 280 280 279 278 276 272 269 267 266 265 265 265 265 265 263 262 262 263 263 261 258 256 254 251 250 249 248 249 253 258 261 264 265 266 265 264
298 293 286 280 273 262 251 243 237 232 228 228 232 234 234 231 229 230 231 230 230 235 243 248 249 251 255 258 261 263 265 268 270 271 272 273 275 276 278 280 281 281 281 281 280 279 278 278 278 278 278 278 278 277 276 274 271 268 267 266 265 265 264 264 263 263 263 263 264 264 263 260 256 254 251 248 246 247 250 254 258 262 265 266 266 265 264
328 316 302 291 280 265 247 233 225 222 219 216 218 224 228 228 227 227 228 228 227 231 240 248 253 255 257 259 261 265 271 276 279 280 280 281 282 282 284 284 282 280 278 277 276 274 274 274 276 278 279 279 278 276 273 271 268 267 267 268 267 265 263 262 262 263 264 264 264 264 263 260 256 253 249 245 244 246 250 254 259 264 267 269 268 265 263
355 352 343 326 303 272 239 218 212 214 215 213 210 213 218 222 224 225 225 226 228 234 242 248 252 255 258 262 267 274 280 284 286 287 287 287 287 287 288 287 282 277 275 275 274 274 273 275 276 278 278 277 276 273 270 268 267 267 268 268 267 265 263 263 264 265 265 265 264 264 263 260 257 252 248 245 244 245 249 255 260 265 268 270 268 265 262
11 10 10 2 341 286 218 202 206 216 220 218 213 210 212 217 222 225 227 228 233 240 246 250 255 261 267 271 274 277 282 286 288 288 288 287 287 287 287 286 282 278 276 276 277 278 279 280 280 278 276 272 270 269 268 268 268 268 268 267 266 265 265 266 267 268 268 267 266 264 262 261 258 254 250 246 245 247 250 256 262 267 269 270 268 263 261
22 21 24 23 17 7 240 210 217 223 222 218 212 209 209 213 219 225 227 229 233 241 249 256 262 266 268 271 275 280 284 287 288 286 285 284 284 283 282 282 281 280 279 280 280 281 281 280 278 275 272 268 266 266 266 267 269 269 268 267 267 268 269 270 270 270 269 268 266 263 262 261 259 256 251 247 247 249 252 257 262 267 269 269 266 262 261
28 30 32 37 39 36 29 1 224 211 205 200 198 200 205 211 217 222 225 225 229 238 247 254 258 261 265 272 280 286 287 285 284 282 281 281 281 280 279 280 281 281 281 281 280 279 277 275 272 270 269 268 267 267 267 268 269 270 270 270 270 271 272 273 273 272 270 268 265 263 260 258 257 255 252 249 248 250 254 259 264 267 269 268 265 261 260
Height
5793 5794 5796 5799 5801 5802 5804 5807 5808 5809 5815 5819 5822 5826 5829 5827 5826 5828 5830 5832 5832 5832 5835 5837 5839 5841 5844 5847 5849 5851 5854 5857 5858 5861 5863 5866 5869 5871 5873 5875 5878 5880 5883 5885 5887 5889 5890 5892 5892 5893 5895 5898 5900 5901 5901 5902 5904 5907 5909 5911 5913 5915 5915 5916 5919 5922 5923 5922 5925 5927 5928 5928 5929 5931 5933 5935 5937 5939 5940 5942 5943 5945 5947 5948 5949 5951 5951
5789 5791 5794 5796 5798 5800 5800 5802 5804 5807 5812 5816 5818 5823 5824 5822 5822 5825 5829 5829 5828 5828 5831 5835 5837 5839 5842 5844 5846 5849 5851 5853 5855 5858 5860 5863 5866 5868 5870 5872 5874 5877 5879 5881 5883 5885 5887 5889 5889 5889 5892 5895 5897 5900 5901 5900 5899 5902 5904 5906 5909 5912 5912 5912 5915 5918 5920 5921 5924 5926 5926 5926 5927 5929 5930 5930 5932 5934 5937 5939 5940 5942 5944 5945 5947 5948 5949
5786 5788 5791 5793 5795 5797 5798 5800 5802 5803 5807 5811 5813 5817 5818 5816 5818 5823 5826 5826 5825 5826 5829 5832 5835 5837 5840 5841 5843 5845 5848 5849 5852 5855 5857 5859 5862 5864 5867 5869 5871 5873 5875 5877 5879 5881 5883 5885 5886 5886 5888 5890 5893 5896 5898 5897 5896 5898 5901 5903 5906 5908 5909 5910 5910 5913 5917 5919 5921 5922 5923 5923 5925 5928 5928 5928 5928 5929 5932 5934 5936 5938 5940 5942 5943 5945 5946
5785 5787 5789 5791 5792 5794 5796 5798 5798 5800 5804 5808 5809 5812 5814 5813 5814 5820 5822 5821 5822 5824 5827 5830 5832 5834 5836 5837 5840 5842 5845 5847 5850 5852 5855 5857 5859 5861 5863 5866 5868 5870 5872 5874 5875 5877 5879 5880 5882 5883 5885 5887 5889 5892 5894 5894 5894 5896 5898 5900 5902 5904 5906 5908 5909 5911 5914 5916 5917 5918 5917 5917 5919 5924 5926 5927 5927 5927 5928 5930 5931 5932 5935 5937 5939 5941 5942
5784 5786 5787 5787 5789 5790 5793 5795 5796 5798 5801 5803 5805 5808 5809 5809 5811 5815 5816 5817 5820 5822 5824 5827 5828 5829 5831 5834 5837 5840 5842 5844 5846 5849 5851 5853 5855 5857 5860 5862 5864 5866 5868 5870 5872 5873 5875 5876 5878 5880 5882 5883 5886 5888 5890 5892 5893 5895 5896 5898 5899 5900 5903 5906 5908 5910 5912 5914 5915 5915 5915 5915 5915 5919 5923 5926 5926 5926 5926 5928 5929 5930 5931 5933 5935 5936 5938
5783 5785 5784 5784 5785 5787 5790 5792 5793 5794 5797 5800 5803 5803 5803 5805 5809 5811 5812 5814 5816 5819 5821 5822 5823 5826 5829 5831 5834 5837 5839 5840 5842 5845 5847 5849 5851 5854 5856 5858 5861 5863 5865 5867 5869 5870 5872 5873 5875 5877 5879 5881 5883 5885 5887 5889 5890 5892 5894 5895 5896 5897 5899 5902 5904 5906 5908 5910 5911 5912 5914 5914 5914 5915 5919 5923 5926 5927 5928 5929 5931 5930 5930 5931 5933 5934 5936
5780 5781 5780 5780 5782 5784 5786 5787 5789 5792 5795 5797 5798 5798 5800 5804 5806 5807 5809 5810 5812 5815 5817 5817 5819 5822 5826 5827 5829 5832 5834 5836 5838 5840 5843 5845 5847 5850 5852 5854 5857 5859 5861 5863 5865 5867 5868 5870 5872 5873 5875 5877 5879 5881 5883 5885 5887 5889 5890 5892 5893 5894 5895 5897 5899 5901 5903 5905 5907 5908 5910 5912 5912 5913 5915 5918 5923 5926 5929 5930 5930 5929 5928 5929 5930 5931 5933
5776 5777 5776 5777 5779 5781 5783 5785 5788 5791 5792 5793 5794 5795 5798 5801 5802 5804 5806 5806 5808 5810 5812 5813 5815 5818 5821 5822 5823 5826 5829 5830 5833 5836 5839 5841 5843 5846 5848 5851 5853 5855 5857 5859 5861 5863 5864 5866 5868 5870 5872 5873 5875 5877 5879 5881 5883 5885 5886 5888 5890 5891 5892 5893 5894 5896 5898 5900 5902 5905 5907 5908 5909 5911 5912 5915 5918 5921 5924 5926 5926 5926 5926 5927 5927 5928 5929
5772 5775 5774 5774 5776 5778 5780 5782 5785 5787 5788 5789 5790 5791 5793 5796 5798 5800 5801 5802 5804 5806 5807 5809 5811 5813 5814 5815 5817 5820 5823 5826 5829 5832 5835 5837 5839 5841 5844 5846 5849 5850 5852 5855 5856 5858 5860 5862 5864 5866 5868 5869 5871 5873 5875 5877 5879 5881 5883 5884 5886 5888 5889 5890 5891 5892 5893 5895 5898 5900 5903 5905 5907 5909 5910 5912 5914 5917 5919 5920 5922 5924 5926 5926 5927 5928 5928
5769 5772 5771 5771 5773 5775 5776 5777 5780 5782 5783 5784 5787 5788 5789 5792 5793 5795 5798 5799 5800 5803 5803 5802 5804 5807 5808 5810 5812 5815 5818 5822 5825 5828 5831 5833 5835 5837 5839 5842 5844 5846 5848 5850 5852 5854 5856 5858 5860 5862 5864 5866 5867 5869 5871 5873 5874 5876 5878 5880 5881 5883 5885 5886 5888 5889 5890 5892 5894 5896 5898 5900 5903 5906 5907 5909 5911 5913 5915 5917 5918 5920 5922 5923 5924 5925 5926
5766 5767 5768 5769 5770 5771 5771 5773 5776 5778 5779 5781 5785 5785 5785 5787 5789 5792 5794 5795 5796 5799 5797 5795 5799 5803 5801 5803 5809 5812 5814 5818 5821 5823 5826 5828 5830 5832 5835 5838 5840 5841 5843 5846 5847 5850 5852 5853 5855 5857 5860 5862 5863 5864 5866 5868 5870 5872 5874 5875 5876 5878 5879 5881 5883 5885 5887 5888 5890 5892 5894 5896 5899 5902 5904 5905 5907 5909 5911 5912 5914 5916 5917 5918 5919 5920 5922
5762 5764 5765 5766 5767 5766 5767 5769 5772 5774 5776 5779 5781 5779 5779 5782 5785 5788 5790 5791 5792 5794 5792 5790 5795 5797 5795 5800 5807 5808 5810 5814 5816 5818 5820 5823 5825 5827 5831 5833 5834 5835 5839 5841 5842 5844 5847 5848 5850 5853 5855 5856 5858 5860 5862 5864 5866 5868 5869 5871 5872 5873 5874 5876 5878 5880 5882 5884 5886 5888 5890 5892 5895 5897 5899 5901 5903 5904 5906 5907 5909 5911 5914 5914 5915 5916 5917
5759 5760 5762 5763 5762 5762 5764 5765 5767 5770 5773 5774 5774 5773 5775 5779 5781 5783 5786 5785 5785 5787 5788 5788 5791 5792 5793 5798 5802 5802 5805 5809 5812 5813 5815 5817 5819 5822 5824 5826 5828 5830 5833 5835 5836 5839 5842 5843 5845 5848 5850 5851 5852 5855 5857 5858 5861 5863 5865 5866 5868 5869 5870 5871 5872 5875 5877 5879 5881 5883 5885 5888 5890 5892 5894 5896 5899 5900 5901 5902 5904 5906 5909 5911 5911 5912 5913
5756 5757 5759 5759 5757 5758 5761 5761 5763 5767 5768 5767 5768 5771 5773 5774 5776 5778 5780 5779 5779 5784 5786 5785 5788 5790 5792 5795 5797 5797 5800 5804 5806 5808 5810 5812 5814 5816 5818 5819 5822 5826 5827 5828 5830 5833 5836 5837 5839 5842 5844 5845 5847 5849 5851 5853 5855 5858 5860 5861 5863 5865 5865 5866 5868 5870 5872 5874 5876 5878 5881 5883 5885 5887 5889 5891 5893 5895 5897 5898 5900 5902 5904 5906 5907 5908 5909
5753 5754 5755 5754 5754 5755 5757 5757 5759 5762 5763 5763 5766 5768 5768 5770 5771 5772 5774 5775 5778 5782 5782 5782 5785 5787 5788 5790 5792 5793 5794 5797 5799 5802 5807 5809 5811 5812 5812 5813 5817 5820 5821 5822 5824 5826 5828 5831 5834 5835 5837 5840 5842 5843 5845 5847 5849 5852 5854 5856 5858 5859 5861 5862 5863 5865 5867 5869 5871 5873 5876 5878 5880 5883 5884 5886 5887 5889 5891 5893 5895 5897 5899 5901 5903 5904 5905
5749 5749 5750 5750 5751 5752 5753 5754 5755 5757 5759 5761 5762 5762 5763 5766 5767 5767 5769 5773 5776 5777 5777 5777 5780 5782 5783 5785 5788 5788 5789 5790 5793 5797 5802 5804 5805 5806 5807 5809 5811 5813 5814 5816 5818 5820 5822 5825 5827 5829 5831 5833 5835 5837 5839 5840 5843 5845 5847 5849 5852 5853 5855 5856 5858 5859 5861 5863 5865 5868 5870 5872 5875 5877 5879 5881 5883 5884 5885 5887 5889 5891 5894 5896 5898 5899 5900
5744 5745 5746 5747 5747 5748 5748 5750 5752 5753 5755 5755 5756 5757 5759 5761 5762 5762 5764 5768 5772 5772 5772 5773 5774 5776 5778 5780 5783 5784 5784 5785 5788 5791 5794 5796 5798 5801 5802 5804 5807 5808 5808 5809 5811 5813 5815 5818 5820 5822 5825 5826 5828 5830 5832 5834 5836 5837 5839 5842 5845 5847 5848 5849 5851 5853 5855 5857 5859 5862 5864 5866 5869 5871 5873 5876 5878 5879 5880 5882 5884 5886 5889 5891 5893 5894 5896
5740 5741 5742 5743 5744 5743 5745 5747 5748 5749 5749 5750 5752 5753 5753 5755 5759 5760 5760 5764 5767 5767 5767 5768 5769 5771 5773 5775 5778 5779 5779 5781 5783 5785 5787 5789 5792 5794 5796 5799 5802 5803 5803 5803 5805 5807 5809 5811 5813 5815 5817 5819 5821 5823 5825 5827 5828 5830 5833 5835 5837 5839 5841 5842 5844 5846 5847 5849 5853 5856 5858 5860 5862 5865 5867 5869 5872 5873 5874 5876 5879 5881 5884 5886 5887 5889 5890
5736 5736 5737 5739 5739 5739 5740 5743 5743 5743 5745 5746 5747 5748 5748 5751 5755 5756 5755 5758 5760 5761 5761 5763 5765 5766 5768 5770 5772 5774 5775 5776 5777 5779 5781 5783 5785 5788 5790 5793 5795 5796 5798 5799 5800 5801 5802 5804 5806 5808 5810 5812 5814 5816 5818 5819 5821 5823 5825 5828 5829 5832 5834 5836 5837 5838 5839 5842 5845 5848 5851 5853 5855 5858 5861 5863 5866 5868 5869 5870 5873 5875 5878 5880 5882 5884 5885
5731 5731 5732 5734 5735 5735 5737 5738 5738 5739 5740 5741 5742 5743 5744 5747 5749 5749 5750 5752 5754 5755 5757 5758 5760 5761 5763 5765 5768 5770 5771 5771 5772 5773 5775 5776 5778 5781 5783 5786 5788 5790 5793 5794 5795 5796 5797 5798 5799 5801 5803 5804 5806 5809 5811 5812 5814 5816 5818 5820 5822 5824 5827 5829 5830 5830 5831 5834 5838 5841 5843 5846 5848 5850 5853 5856 5859 5862 5863 5864 5866 5869 5871 5874 5876 5878 5880
5726 5727 5728 5729 5730 5732 5733 5733 5733 5734 5735 5737 5738 5740 5741 5742 5743 5744 5745 5746 5748 5750 5752 5753 5754 5756 5757 5760 5763 5764 5765 5766 5767 5768 5769 5770 5772 5774 5776 5778 5781 5784 5786 5788 5790 5791 5791 5792 5793 5794 5796 5797 5799 5801 5803 5805 5807 5809 5811 5813 5815 5817 5819 5822 5822 5821 5823 5827 5831 5833 5834 5837 5839 5842 5845 5848 5852 5855 5857 5858 5860 5862 5864 5866 5869 5871 5874
5720 5721 5722 5724 5725 5726 5727 5729 5729 5728 5729 5732 5735 5736 5737 5737 5738 5739 5741 5742 5743 5745 5746 5748 5749 5750 5752 5754 5756 5758 5759 5760 5761 5762 5763 5764 5765 5767 5769 5771 5774 5776 5779 5781 5783 5785 5786 5787 5787 5788 5789 5791 5792 5794 5796 5798 5800 5802 5804 5806 5807 5809 5811 5813 5814 5815 5817 5820 5822 5824 5825 5827 5830 5833 5836 5839 5843 5846 5849 5851 5853 5856 5858 5859 5861 5864 5867
5715 5716 5717 5719 5720 5721 5722 5724 5724 5724 5724 5727 5730 5732 5732 5733 5733 5735 5736 5737 5739 5740 5741 5743 5745 5746 5747 5749 5750 5752 5753 5755 5756 5757 5758 5758 5759 5760 5762 5764 5766 5768 5771 5773 5775 5778 5780 5781 5782 5783 5783 5784 5785 5787 5789 5791 5793 5795 5797 5799 5800 5802 5804 5805 5807 5809 5811 5812 5813 5815 5817 5819 5821 5825 5828 5830 5833 5837 5840 5843 5845 5848 5851 5852 5854 5857 5859
5711 5712 5713 5715 5716 5716 5717 5719 5719 5719 5720 5722 5724 5726 5728 5728 5729 5731 5732 5733 5734 5735 5736 5738 5740 5741 5742 5744 5746 5747 5748 5749 5750 5751 5752 5753 5753 5754 5756 5757 5759 5760 5762 5765 5767 5770 5772 5774 5776 5777 5777 5778 5779 5780 5782 5784 5786 5788 5790 5791 5793 5794 5796 5798 5800 5802 5803 5803 5805 5807 5809 5811 5813 5816 5819 5821 5823 5826 5830 5833 5836 5839 5842 5845 5847 5849 5852
5706 5707 5708 5710 5711 5712 5713 5714 5715 5715 5716 5717 5718 5720 5722 5723 5725 5726 5727 5728 5729 5730 5732 5733 5734 5735 5738 5739 5740 5742 5742 5743 5745 5746 5747 5748 5749 5750 5751 5751 5752 5753 5755 5757 5759 5761 5763 5765 5768 5769 5770 5772 5773 5774 5775 5777 5779 5780 5781 5783 5784 5786 5788 5790 5792 5793 5795 5796 5797 5798 5800 5803 5805 5808 5810 5811 5813 5815 5820 5823 5826 5829 5832 5835 5838 5841 5844
5702 5703 5704 5705 5706 5708 5708 5709 5710 5711 5712 5712 5713 5714 5716 5718 5720 5721 5721 5722 5724 5725 5727 5728 5728 5730 5733 5734 5734 5736 5737 5738 5740 5741 5742 5743 5744 5745 5746 5746 5747 5748 5749 5751 5752 5754 5755 5757 5759 5760 5762 5765 5767 5768 5768 5769 5770 5771 5772 5774 5775 5777 5779 5782 5784 5786 5787 5788 5789 5791 5793 5794 5796 5798 5801 5802 5803 5806 5809 5813 5816 5819 5821 5824 5828 5832 5836
5697 5698 5699 5700 5701 5703 5704 5704 5705 5706 5706 5707 5708 5709 5710 5712 5715 5716 5716 5716 5718 5720 5722 5722 5723 5725 5727 5728 5729 5730 5731 5733 5734 5736 5737 5738 5739 5740 5741 5742 5743 5743 5744 5745 5746 5747 5748 5750 5751 5752 5754 5757 5758 5760 5761 5762 5762 5763 5764 5766 5767 5768 5770 5773 5776 5778 5779 5780 5782 5784 5785 5786 5787 5789 5792 5794 5795 5797 5799 5802 5806 5809 5811 5813 5817 5821 5826
5693 5694 5694 5695 5696 5698 5699 5699 5699 5700 5701 5702 5703 5704 5705 5707 5709 5711 5711 5711 5712 5713 5716 5717 5718 5719 5721 5722 5723 5724 5725 5727 5728 5730 5731 5732 5733 5735 5736 5737 5738 5738 5739 5740 5741 5741 5742 5744 5745 5746 5747 5749 5750 5751 5752 5753 5754 5755 5756 5757 5759 5760 5762 5763 5766 5768 5770 5772 5774 5775 5776 5777 5779 5781 5783 5785 5787 5788 5790 5792 5795 5799 5801 5803 5805 5809 5814
5688 5689 5689 5690 5691 5692 5693 5693 5694 5695 5696 5697 5698 5699 5700 5701 5703 5704 5705 5706 5706 5708 5710 5712 5712 5713 5715 5716 5717 5718 5719 5721 5722 5723 5725 5726 5727 5729 5730 5731 5732 5733 5734 5734 5735 5736 5737 5738 5738 5740 5741 5742 5743 5744 5744 5745 5745 5746 5748 5749 5750 5752 5753 5755 5756 5759 5761 5763 5764 5766 5767 5769 5771 5773 5775 5776 5778 5780 5781 5783 5785 5789 5792 5794 5795 5798 5802
5684 5684 5684 5685 5686 5687 5687 5688 5688 5689 5690 5691 5692 5693 5695 5696 5697 5698 5699 5700 5701 5702 5704 5706 5707 5708 5709 5710 5711 5712 5713 5714 5715 5717 5718 5719 5721 5723 5724 5725 5726 5727 5727 5728 5729 5730 5730 5731 5732 5733 5734 5735 5736 5736 5737 5737 5738 5739 5740 5741 5742 5743 5744 5746 5748 5750 5751 5752 5753 5755 5757 5759 5762 5764 5766 5767 5769 5771 5773 5774 5776 5778 5781 5784 5786 5788 5790
5679 5679 5680 5680 5681 5682 5682 5682 5683 5684 5685 5685 5686 5688 5689 5690 5691 5692 5694 5695 5696 5697 5698 5700 5701 5702 5703 5704 5705 5706 5707 5708 5709 5710 5711 5713 5714 5716 5716 5717 5718 5719 5720 5721 5722 5723 5724 5725 5725 5726 5728 5728 5729 5729 5729 5730 5730 5731 5732 5733 5734 5735 5736 5737 5739 5740 5741 5741 5743 5744 5747 5749 5751 5754 5757 5758 5760 5762 5764 5766 5767 5769 5771 5774 5776 5778 5781
5674 5674 5675 5675 5676 5677 5677 5677 5677 5678 5679 5680 5681 5682 5683 5684 5686 5687 5688 5689 5690 5691 5692 5693 5694 5695 5696 5698 5699 5700 5701 5702 5703 5704 5705 5706 5708 5708 5709 5710 5711 5712 5713 5714 5715 5716 5717 5717 5718 5719 5720 5721 5722 5722 5722 5722 5723 5724 5725 5726 5726 5727 5727 5728 5729 5730 5731 5732 5733 5735 5736 5738 5740 5744 5746 5748 5750 5752 5754 5756 5758 5760 5761 5764 5766 5767 5771
5668 5669 5670 5670 5671 5671 5671 5671 5672 5672 5673 5674 5675 5676 5677 5679 5680 5680 5681 5682 5683 5685 5686 5686 5687 5688 5690 5691 5692 5693 5694 5695 5696 5697 5698 5700 5700 5701 5702 5702 5703 5704 5705 5706 5707 5708 5709 5710 5711 5712 5712 5713 5713 5714 5714 5715 5716 5717 5718 5719 5719 5719 5719 5720 5720 5721 5722 5723 5724 5725 5726 5728 5730 5733 5734 5736 5739 5741 5744 5746 5748 5750 5751 5753 5755 5757 5761
5663 5663 5663 5664 5666 5666 5665 5665 5666 5667 5668 5669 5669 5670 5671 5673 5673 5673 5675 5676 5676 5677 5679 5680 5681 5682 5683 5684 5685 5686 5687 5688 5689 5690 5691 5692 5693 5694 5695 5695 5696 5697 5698 5699 5700 5701 5702 5702 5703 5704 5704 5705 5705 5706 5707 5707 5708 5709 5710 5710 5711 5711 5712 5712 5712 5713 5714 5715 5715 5716 5717 5719 5721 5722 5723 5725 5727 5730 5733 5735 5737 5739 5741 5743 5744 5746 5750
5659 5658 5658 5657 5658 5658 5658 5659 5660 5661 5662 5663 5663 5664 5666 5667 5666 5667 5669 5669 5669 5670 5673 5674 5675 5676 5677 5678 5679 5680 5681 5682 5683 5683 5684 5685 5687 5687 5688 5688 5689 5690 5691 5691 5692 5694 5694 5694 5695 5696 5697 5696 5697 5698 5699 5699 5700 5701 5701 5701 5702 5703 5703 5704 5704 5704 5705 5705 5706 5707 5709 5710 5711 5713 5713 5714 5716 5719 5722 5724 5726 5727 5729 5732 5734 5736 5739
5654 5654 5653 5652 5652 5651 5651 5652 5653 5654 5656 5657 5658 5659 5660 5661 5662 5663 5664 5663 5663 5665 5667 5669 5670 5671 5671 5672 5673 5674 5675 5676 5677 5678 5678 5679 5680 5681 5681 5682 5682 5683 5684 5684 5685 5686 5686 5687 5688 5688 5689 5688 5689 5690 5691 5691 5692 5693 5693 5692 5693 5693 5694 5695 5696 5696 5696 5696 5697 5699 5700 5701 5702 5703 5704 5705 5707 5708 5711 5713 5715 5716 5718 5720 5723 5725 5729
5649 5648 5648 5648 5648 5647 5647 5647 5648 5649 5650 5651 5652 5653 5654 5656 5657 5658 5658 5657 5658 5660 5662 5663 5664 5665 5666 5667 5668 5669 5670 5671 5671 5672 5672 5673 5674 5674 5675 5675 5676 5677 5677 5677 5677 5678 5679 5680 5681 5681 5681 5681 5682 5683 5683 5683 5684 5684 5684 5683 5684 5684 5685 5686 5687 5688 5688 5688 5688 5689 5690 5691 5692 5694 5695 5696 5697 5699 5700 5702 5704 5705 5707 5709 5711 5714 5717
5642 5642 5642 5642 5642 5642 5642 5643 5643 5644 5645 5645 5646 5648 5649 5650 5651 5653 5653 5653 5653 5655 5656 5657 5659 5660 5660 5661 5662 5663 5664 5665 5665 5666 5666 5667 5667 5668 5668 5669 5670 5671 5671 5670 5670 5671 5672 5673 5673 5674 5674 5674 5675 5675 5675 5675 5675 5675 5675 5675 5675 5676 5676 5677 5678 5678 5679 5679 5679 5680 5681 5682 5683 5684 5686 5687 5688 5689 5691 5692 5693 5695 5697 5699 5700 5703 5705
5634 5634 5634 5634 5635 5636 5636 5637 5637 5639 5640 5640 5640 5641 5643 5644 5646 5647 5648 5648 5648 5649 5650 5652 5653 5654 5655 5656 5656 5657 5658 5659 5659 5660 5660 5661 5662 5662 5662 5663 5664 5665 5664 5663 5664 5665 5665 5665 5666 5667 5667 5667 5667 5667 5666 5666 5666 5666 5667 5667 5667 5668 5668 5668 5668 5669 5669 5669 5670 5670 5671 5672 5673 5674 5676 5677 5679 5680 5681 5682 5683 5685 5687 5688 5690 5692 5694
5625 5625 5625 5626 5627 5628 5629 5630 5631 5632 5633 5633 5634 5635 5637 5638 5640 5642 5643 5643 5644 5644 5645 5646 5647 5648 5649 5650 5651 5651 5652 5653 5653 5654 5654 5655 5656 5656 5656 5657 5658 5659 5658 5657 5658 5658 5659 5659 5660 5660 5660 5659 5659 5658 5658 5658 5658 5659 5659 5659 5659 5659 5659 5659 5659 5659 5659 5659 5660 5661 5662 5662 5663 5664 5666 5667 5669 5671 5672 5673 5674 5676 5677 5679 5680 5681 5683
5615 5615 5615 5616 5617 5618 5620 5621 5623 5625 5626 5627 5628 5630 5631 5632 5634 5636 5637 5638 5638 5639 5640 5641 5641 5642 5643 5644 5645 5646 5647 5647 5647 5648 5649 5649 5650 5650 5650 5651 5652 5652 5652 5651 5652 5652 5652 5653 5653 5653 5652 5652 5651 5651 5651 5651 5651 5651 5651 5650 5650 5650 5650 5650 5650 5650 5650 5650 5651 5651 5652 5653 5653 5654 5656 5658 5660 5662 5663 5664 5665 5667 5668 5669 5670 5671 5673
5604 5604 5604 5605 5606 5608 5610 5612 5614 5616 5618 5619 5622 5624 5625 5626 5628 5630 5632 5633 5632 5633 5634 5636 5636 5637 5638 5639 5639 5640 5641 5641 5641 5642 5643 5644 5644 5645 5645 5645 5646 5647 5646 5645 5646 5646 5646 5647 5647 5646 5645 5644 5644 5644 5643 5643 5643 5643 5642 5642 5641 5641 5641 5642 5642 5642 5642 5641 5641 5642 5643 5644 5645 5646 5647 5649 5651 5652 5653 5655 5656 5658 5659 5660 5661 5662 5663
5593 5593 5593 5593 5594 5596 5599 5601 5603 5606 5608 5611 5614 5617 5619 5620 5622 5624 5626 5627 5628 5628 5629 5630 5631 5631 5632 5633 5633 5634 5635 5635 5636 5637 5638 5638 5639 5640 5640 5640 5640 5641 5641 5639 5639 5640 5640 5640 5639 5639 5637 5637 5637 5636 5636 5636 5635 5635 5634 5633 5633 5633 5633 5633 5633 5633 5633 5633 5633 5633 5634 5635 5636 5637 5639 5640 5642 5643 5645 5647 5649 5650 5650 5651 5652 5652 5653
5583 5582 5582 5582 5583 5584 5587 5589 5592 5595 5599 5602 5605 5609 5612 5613 5615 5618 5620 5622 5623 5624 5624 5624 5625 5625 5626 5627 5628 5629 5630 5630 5630 5631 5632 5632 5633 5635 5635 5635 5634 5635 5634 5633 5633 5633 5633 5632 5632 5631 5630 5629 5629 5628 5628 5628 5627 5626 5625 5625 5625 5625 5625 5625 5625 5625 5625 5625 5625 5625 5625 5626 5627 5629 5630 5632 5633 5635 5637 5639 5641 5641 5642 5642 5643 5643 5644
5575 5574 5573 5573 5573 5574 5576 5578 5581 5586 5590 5594 5597 5601 5604 5607 5609 5612 5614 5616 5617 5618 5618 5618 5619 5620 5621 5622 5622 5623 5624 5625 5625 5626 5627 5627 5628 5628 5629 5629 5628 5627 5627 5626 5626 5626 5626 5625 5624 5623 5623 5622 5620 5619 5619 5619 5618 5618 5618 5617 5617 5617 5617 5617 5617 5617 5617 5617 5617 5617 5618 5618 5619 5620 5622 5624 5625 5627 5630 5631 5632 5633 5633 5634 5634 5635 5635
5570 5568 5566 5565 5564 5565 5567 5569 5572 5577 5582 5587 5590 5594 5597 5600 5603 5607 5609 5610 5612 5613 5614 5614 5614 5615 5616 5617 5617 5618 5619 5619 5620 5621 5622 5622 5622 5622 5622 5622 5622 5620 5619 5619 5619 5619 5618 5617 5617 5616 5615 5614 5613 5612 5611 5611 5610 5610 5610 5610 5610 5610 5610 5610 5610 5610 5610 5610 5610 5610 5610 5611 5611 5613 5614 5616 5618 5620 5622 5624 5624 5625 5625 5625 5626 5627 5628
5565 5562 5560 5558 5558 5558 5559 5562 5564 5569 5574 5579 5584 5588 5591 5594 5598 5602 5604 5605 5607 5608 5608 5608 5609 5610 5611 5612 5612 5613 5614 5614 5615 5616 5616 5616 5616 5616 5616 5616 5615 5614 5612 5612 5612 5611 5610 5610 5609 5609 5608 5607 5606 5605 5604 5603 5603 5603 5603 5603 5603 5603 5603 5603 5603 5603 5603 5603 5603 5603 5603 5603 5604 5605 5607 5609 5611 5613 5615 5616 5617 5617 5618 5618 5619 5620 5620
5562 5559 5557 5555 5554 5554 5554 5556 5560 5564 5567 5571 5577 5583 5586 5589 5592 5596 5598 5600 5602 5604 5604 5603 5604 5605 5606 5607 5607 5608 5609 5609 5610 5610 5611 5611 5610 5610 5610 5611 5610 5608 5606 5605 5605 5605 5604 5604 5603 5602 5601 5600 5599 5598 5597 5597 5597 5596 5596 5596 5596 5596 5596 5597 5597 5597 5597 5597 5596 5596 5596 5596 5597 5598 5600 5602 5604 5606 5608 5609 5610 5610 5610 5611 5612 5612 5612
5561 5559 5556 5554 5553 5552 5553 5554 5558 5562 5564 5566 5571 5576 5581 5584 5587 5590 5592 5595 5599 5600 5599 5599 5600 5601 5601 5602 5603 5604 5605 5605 5605 5605 5605 5605 5604 5604 5604 5604 5604 5602 5600 5599 5599 5599 5599 5598 5598 5596 5595 5594 5593 5592 5591 5591 5591 5590 5590 5590 5590 5590 5591 5591 5591 5590 5590 5590 5590 5590 5589 5590 5590 5592 5593 5596 5598 5600 5601 5603 5603 5603 5603 5604 5604 5604 5605
5562 5560 5557 5555 5553 5553 5554 5555 5558 5561 5563 5565 5567 5570 5575 5579 5581 5584 5588 5593 5596 5595 5594 5594 5596 5597 5597 5598 5599 5600 5600 5600 5600 5600 5600 5600 5599 5599 5598 5598 5597 5597 5596 5595 5594 5593 5593 5592 5591 5590 5589 5588 5587 5586 5585 5585 5585 5585 5585 5585 5585 5585 5585 5585 5584 5584 5584 5583 5583 5583 5583 5583 5584 5585 5587 5589 5591 5593 5595 5596 5597 5596 5596 5597 5597 5597 5598
5565 5562 5559 5557 5556 5556 5556 5556 5557 5558 5560 5562 5564 5567 5572 5576 5578 5581 5585 5590 5592 5590 5589 5591 5593 5593 5594 5594 5595 5595 5596 5597 5596 5596 5596 5595 5595 5595 5594 5593 5592 5591 5591 5590 5589 5588 5587 5586 5585 5584 5583 5582 5581 5581 5580 5580 5580 5579 5579 5579 5579 5579 5579 5579 5578 5578 5578 5577 5577 5576 5577 5577 5578 5579 5581 5583 5585 5587 5589 5590 5590 5590 5590 5590 5590 5591 5591
5568 5565 5562 5560 5559 5558 5557 5557 5557 5558 5559 5561 5565 5568 5571 5574 5577 5579 5583 5586 5587 5587 5588 5589 5590 5590 5590 5591 5591 5592 5593 5593 5592 5592 5592 5591 5591 5591 5590 5589 5588 5587 5586 5585 5584 5583 5582 5580 5579 5579 5578 5577 5576 5576 5576 5575 5575 5575 5574 5574 5574 5574 5574 5573 5572 5572 5571 5571 5571 5571 5571 5572 5573 5574 5575 5577 5579 5581 5583 5584 5584 5584 5584 5584 5584 5584 5585